Dewpoint
70 71 71 71 71 71 71 72 71 72 72 72 72 71 71 71 71 71 70 71 70 69 69 68 69 69 70 70 70 69 69 69 69 69 70 69 69 69 68 68 68 68 67 67 68 68 67 67 67 66 65 66 66 63 63 63 63 66 64 66 66 63
70 71 71 71 71 71 71 71 70 70 71 70 71 71 70 70 70 69 71 69 68 69 67 67 68 69 69 69 69 69 69 68 69 69 69 69 69 69 69 68 68 68 68 68 67 62 62 66 66 65 64 65 62 63 63 63 64 64 65 65 65 65
70 70 70 70 70 70 70 70 70 70 70 71 71 71 70 70 68 68 68 68 68 67 67 68 69 69 70 70 69 68 68 68 67 68 68 69 69 69 69 69 69 68 69 67 62 62 61 60 62 64 66 62 61 62 63 63 64 64 64 65 64 65
70 70 70 70 70 70 70 70 69 69 69 69 69 69 69 68 67 67 67 67 67 67 67 67 70 69 69 69 69 68 67 66 66 67 68 68 68 69 69 69 69 69 66 65 62 62 62 61 60 60 61 61 61 61 63 63 63 64 64 65 63 65
69 70 69 70 70 70 70 70 69 69 69 69 68 68 68 67 67 67 67 67 67 67 66 65 65 66 67 66 66 66 67 66 66 66 66 67 66 67 67 66 65 65 63 64 64 62 62 62 61 60 61 61 61 61 62 64 63 63 63 65 65 66
69 69 69 69 69 69 70 69 69 69 69 68 68 68 67 66 66 66 66 66 67 66 65 64 64 65 65 65 65 65 65 65 65 66 67 66 66 65 64 64 64 64 64 63 63 62 61 63 61 60 60 61 61 60 61 63 63 64 63 64 65 66
68 69 69 69 69 68 69 69 69 69 68 68 67 67 66 66 66 66 66 67 65 64 64 63 63 64 65 65 65 65 65 64 64 65 65 65 64 64 64 64 64 64 63 63 63 62 61 61 60 60 61 61 60 60 61 63 63 63 63 64 65 66
68 68 68 68 69 68 68 68 69 69 68 69 67 66 65 65 66 66 66 66 66 64 64 64 64 64 64 64 65 64 64 64 64 65 65 65 65 65 64 64 64 63 64 63 63 63 62 62 61 60 60 61 60 60 60 62 63 63 63 64 64 66
68 68 68 68 68 68 68 68 68 68 68 68 66 65 64 65 66 66 65 66 67 64 63 63 63 64 64 64 63 62 63 64 64 64 64 64 64 64 64 63 63 63 63 62 62 62 63 62 60 60 60 60 60 60 60 62 63 63 64 64 64 65
67 67 67 67 67 67 67 67 68 68 68 67 66 65 64 64 65 65 65 65 65 64 64 64 63 63 63 63 63 62 63 63 64 64 64 63 64 64 64 64 63 63 62 62 62 62 61 59 58 59 59 60 60 60 61 62 62 63 64 64 65 65
68 68 67 67 67 67 67 67 67 68 68 66 65 65 64 64 64 64 64 64 65 65 64 63 63 63 62 62 62 61 61 62 63 63 63 62 63 63 63 64 63 63 62 62 62 60 60 59 58 57 60 59 58 60 61 62 62 63 63 64 65 65
68 68 67 67 67 67 66 66 67 67 67 66 66 65 64 64 65 64 64 64 64 65 65 63 63 63 62 62 62 62 61 62 62 63 64 63 63 63 62 62 63 63 62 61 61 59 60 59 59 59 58 58 58 61 61 62 62 63 64 64 64 65
68 68 67 67 66 66 66 67 66 65 66 67 66 65 64 64 64 64 64 64 64 64 64 63 62 64 65 62 62 61 61 62 62 63 64 64 64 63 63 63 62 62 59 58 57 57 59 60 61 61 61 61 60 60 61 61 62 63 63 64 64 65
67 67 67 66 66 66 66 66 66 66 67 66 65 65 65 64 65 64 64 63 63 64 63 64 63 63 64 62 62 62 62 61 62 63 64 64 64 64 64 63 62 61 62 57 56 58 58 60 60 61 61 60 61 60 61 61 62 63 63 64 64 65
67 66 67 66 67 66 65 66 65 66 65 65 65 64 64 64 64 63 63 63 63 64 63 64 64 63 62 62 62 62 61 62 62 63 63 64 64 64 63 63 62 59 57 58 58 60 59 60 60 60 60 60 60 60 61 61 62 62 62 63 64 64
66 66 65 65 65 65 65 64 65 65 64 65 64 64 64 64 63 62 63 63 64 64 63 63 63 62 61 61 62 61 61 62 63 62 63 63 63 63 62 61 60 58 57 59 59 59 59 60 60 60 60 60 59 60 59 60 61 61 62 62 63 64
65 65 64 64 64 63 63 63 64 63 63 63 63 63 63 63 63 62 61 62 63 64 63 63 63 62 61 61 61 61 62 62 63 62 62 62 62 62 61 60 60 59 58 60 60 60 60 60 61 61 61 60 59 59 58 59 59 61 62 62 62 63
64 64 63 63 62 62 62 61 61 62 63 61 61 62 62 62 61 60 61 61 62 63 63 63 62 62 61 61 61 61 62 63 63 62 61 61 62 61 59 60 60 60 60 60 60 60 60 60 61 60 60 61 60 58 58 58 59 60 60 60 61 61
63 62 62 61 60 60 60 60 59 59 60 59 60 61 61 61 61 60 60 61 62 63 62 62 63 62 61 62 60 61 62 63 62 61 60 60 61 61 60 60 59 60 61 61 60 59 60 60 60 60 60 60 60 60 59 60 58 58 58 60 62 64
60 61 60 59 59 59 59 59 58 58 58 58 58 61 58 60 60 60 60 62 62 61 61 62 63 62 61 60 60 61 62 63 62 61 60 59 59 60 60 59 59 60 60 61 61 61 60 59 58 59 58 58 59 61 60 59 58 58 58 59 62 62
59 60 60 58 58 58 58 56 56 56 55 54 56 56 55 55 56 58 60 60 62 61 60 61 62 61 60 62 61 60 61 62 62 61 60 59 60 61 60 59 60 59 59 58 58 61 60 59 59 58 57 57 58 61 62 60 59 59 58 59 61 62
57 59 59 58 58 57 55 57 57 56 54 54 55 55 53 54 56 57 58 60 61 60 60 60 62 60 61 62 61 60 61 62 61 61 60 61 60 62 60 59 59 58 58 57 58 60 60 58 56 56 57 56 56 58 59 59 60 61 61 60 60 62
56 57 56 57 56 55 54 55 54 53 54 52 53 54 54 56 56 54 54 55 56 58 59 59 61 62 60 61 60 60 61 62 61 61 61 60 61 62 60 59 59 58 58 59 60 61 59 58 57 58 56 55 53 53 55 57 58 60 61 61 61 61
55 54 54 56 56 55 55 54 53 53 53 52 53 55 54 54 53 53 53 54 55 53 54 56 59 61 60 60 60 61 61 61 61 62 60 59 60 60 61 61 60 58 59 58 58 59 60 58 58 57 55 53 52 52 52 52 55 59 61 61 61 60
53 53 54 57 55 55 54 53 53 53 54 53 53 52 52 52 53 56 54 53 53 54 54 55 56 58 61 60 60 59 59 59 60 61 60 60 59 60 59 60 60 60 59 59 58 59 60 60 59 59 58 54 52 52 52 55 55 58 60 61 61 61
52 54 55 54 55 54 54 52 52 52 51 50 50 50 50 50 50 51 52 52 52 53 52 53 53 56 59 61 59 58 58 59 60 60 60 59 59 59 59 60 60 61 60 60 60 59 59 60 59 59 58 57 55 53 53 56 55 53 56 59 60 61
53 54 54 54 54 54 52 52 52 51 51 51 51 49 49 50 51 51 52 52 51 52 51 52 53 54 57 58 56 57 58 58 59 59 60 58 58 58 60 61 61 61 61 60 60 59 59 60 60 60 59 59 60 59 59 56 53 53 53 55 58 58
55 55 53 54 54 53 52 52 51 51 52 51 51 51 51 51 52 54 51 51 50 50 51 51 53 53 55 56 55 55 55 56 56 57 58 57 58 59 59 59 59 59 60 60 60 60 59 60 58 58 59 59 58 58 58 57 56 54 53 53 54 57
54 53 52 53 53 53 53 52 52 52 51 51 51 52 53 53 51 51 50 49 49 49 50 50 51 52 53 54 56 53 54 54 55 55 56 54 54 54 55 55 56 56 57 57 58 59 60 59 58 58 58 58 58 57 55 55 56 56 54 53 51 52
53 52 52 52 52 52 53 53 51 51 51 52 53 51 51 51 49 49 48 48 48 49 49 50 50 51 51 52 52 53 52 53 53 55 55 52 52 52 52 52 52 53 54 53 53 55 57 56 57 58 58 57 56 56 53 53 53 53 51 52 50 46
53 53 52 51 51 52 52 52 51 51 52 52 51 51 51 50 49 48 48 47 48 48 48 49 50 51 51 52 53 54 52 53 54 56 53 51 51 50 50 51 51 50 50 50 50 50 51 52 54 55 56 56 56 54 52 51 48 49 49 47 50 50
52 52 51 50 51 51 52 52 52 52 52 52 52 51 51 50 49 48 47 48 47 47 47 48 49 50 50 51 52 51 53 51 52 51 51 51 51 50 51 50 50 50 49 50 50 50 48 48 49 49 49 49 49 50 50 50 50 49 48 48 50 48
53 52 51 50 51 51 51 52 52 52 53 53 52 52 51 50 49 48 48 48 47 47 47 47 48 48 49 49 51 50 50 50 50 51 51 51 51 51 50 50 49 49 49 48 48 48 47 47 48 47 47 48 48 48 48 49 49 47 47 47 47 45
53 53 52 51 50 50 51 52 52 53 53 53 52 52 52 51 50 49 48 48 47 47 46 46 47 48 48 50 50 51 50 50 50 50 51 50 50 50 50 49 49 48 48 48 48 48 47 47 47 47 48 47 47 47 48 48 47 47 46 46 45 44
53 54 53 52 52 51 52 52 53 53 53 53 53 52 52 52 51 49 49 48 47 47 47 47 47 48 51 49 49 49 49 49 50 50 51 51 51 50 50 49 49 49 49 48 48 48 47 47 47 46 47 47 48 47 47 47 47 47 47 47 46 45
55 54 54 53 52 52 53 53 53 53 53 54 54 53 53 52 51 50 49 49 48 48 48 48 48 49 49 49 48 49 49 49 49 50 50 49 49 49 49 49 49 48 48 49 47 46 46 46 46 47 47 47 47 46 47 47 47 47 47 47 47 46
55 56 55 53 53 53 54 53 53 53 54 53 53 53 53 52 51 51 50 49 49 49 49 49 49 51 49 48 49 49 48 48 49 49 49 49 48 48 49 49 48 47 47 47 47 46 46 46 46 46 46 46 46 46 47 48 47 47 47 47 47 47